Torna al catalogo

BREEZE-M DEB

LostHEO
NORAD 38582·DEBRIS·🇷🇺 Russia

Lanciato Mar 14, 2008 da Baikonur Cosmodrome

Loading…

Prossimi Passaggi (prossime 24 ore)

TLE

ObsoletoSource: Space-Track

Epoca: Apr 6, 2013, 12:49 UTC

1 38582U 08011AD  13096.53440181 -.00000048  00000-0  10000-3 0  9998
2 38582 047.5207 262.8982 6144960 175.6948 007.0088 02.99711522 21857

Traccia BREEZE-M DEB in tempo reale con AllMySat

Download on the App Store